[[{"header":{"parameterUnit":"m.s-1","parameterCategory":1,"la1":30.2991,"la2":30.254,"lo1":-89.0895,"lo2":-89.0444,"dy":0.0017,"dx":0.0017,"nx":28,"ny":28,"refTime":"2025-02-06T09:00:00:Z","depth":0,"parameterNumber":2,"parameterNumberName":"U-component_of_WINDS"},"data":[0,0,0,0,0,0,0,0,0,0,0,0,0,0,0,0,0,0,0,0,0,0,0,0,0,0,0,0,0,0,0,0,0,0,0,0,0,0,0,0,0,0,0,0,0,0,0,0,0,0,0,0,0,0,0,0,0,0,-2.1886,-2.1886,0,-2.1922,-2.1922,-2.1923,-2.187,-2.1869,-2.1867,-2.1865,-2.1903,-2.1906,-2.1909,0,0,0,0,0,0,0,0,0,0,0,0,0,-2.1775,-2.1778,-2.1886,-2.1886,-2.1887,-2.1922,-2.1922,-2.1923,-2.1871,-2.1868,-2.1866,-2.1864,-2.1902,-2.1906,-2.1909,0,0,0,0,0,0,0,0,0,0,0,0,0,-2.1819,-2.1778,-2.1886,-2.1865,-2.1864,-2.1922,-2.1922,-2.1923,-2.1871,-2.1868,-2.1866,-2.1863,-2.1901,-2.1905,-2.1909,-2.199,0,0,-2.1922,-2.1924,0,0,0,0,0,0,0,0,-2.1816,-2.1823,-2.1868,-2.1867,-2.1865,-2.1889,-2.1897,-2.1945,-2.1872,-2.1868,-2.1865,-2.1862,-2.1901,-2.1905,-2.1918,-2.1992,-2.1993,-2.1922,-2.1925,-2.1926,-2.1928,0,0,0,0,0,0,0,-2.1813,-2.1821,-2.19,-2.1868,-2.1867,-2.1855,-2.1858,-2.1906,-2.19,-2.1868,-2.1865,-2.187,-2.19,-2.1914,-2.1918,-2.1994,-2.1922,-2.1926,-2.1928,-2.193,-2.2137,-2.214,0,0,0,0,0,0,-2.1812,-2.1819,-2.1899,-2.1901,-2.1833,-2.1859,-2.1863,-2.1884,-2.1899,-2.1899,-2.1872,-2.1867,-2.1908,-2.1913,-2.1919,-2.2015,-2.1926,-2.193,-2.1933,-2.2134,-2.2138,-2.2141,0,0,0,0,0,0,-2.181,-2.182,-2.1898,-2.1859,-2.1868,-2.1864,-2.1888,-2.1886,-2.19,-2.1902,-2.19,-2.1887,-2.1906,-2.1913,-2.1973,-2.2016,-2.1932,-2.1936,-2.2131,-2.2136,-2.214,-2.2208,0,0,0,0,0,0,-2.1807,-2.182,-2.1849,-2.186,-2.187,-2.195,-2.1891,-2.1889,-2.1907,-2.1901,-2.1916,-2.1916,-2.1905,-2.1967,-2.1977,-2.202,-2.1939,-2.2127,-2.2133,-2.2138,-2.2201,-2.2214,-2.2225,0,0,0,0,0,-2.1804,-2.1867,-2.1851,-2.1861,-2.1907,-2.1953,-2.1958,-2.1944,-2.1911,-2.1941,-2.1943,-2.1915,-2.201,-2.1974,-2.1984,-2.2029,-2.2124,-2.2131,-2.2138,-2.2196,-2.2211,-2.2224,0,0,0,0,0,0,-2.1862,-2.1868,-2.185,-2.1919,-2.1936,-2.1944,-2.1981,-2.196,-2.1987,-2.198,-2.1961,-2.1965,-2.2029,-2.2035,-2.1995,-2.2109,-2.2061,-2.2071,-2.2102,-2.2117,-2.2128,-2.2125,-2.1942,0,0,0,0,0,-2.1883,-2.1918,-2.1922,-2.1983,-2.1992,-2.1986,-2.2005,-2.1992,-2.2009,-2.2015,-2.2021,-2.2039,-2.2072,-2.2095,-2.2126,-2.2202,-2.2205,-2.2239,-2.225,-2.226,-2.2268,-2.231,-2.2325,-2.2164,-2.2164,-2.2164,0,0,-2.1926,-2.1934,-2.1958,-2.1995,-2.2006,-2.2044,-2.1992,-2.2034,-2.2062,-2.2022,-2.2078,-2.2083,-2.2102,-2.2171,-2.2201,-2.2178,-2.2313,-2.2268,-2.2276,-2.2279,-2.2319,-2.2334,-2.2347,-2.2169,-2.2168,-2.2167,0,0,-2.2025,-2.2034,-2.2086,-2.2098,-2.2116,-2.2112,-2.2125,-2.2136,-2.2138,-2.2194,-2.2165,-2.2199,-2.2257,-2.2272,-2.2287,-2.2394,-2.237,-2.2404,-2.2465,-2.2506,-2.2518,-2.253,-2.2568,-2.2582,-2.2413,-2.2413,-2.2413,0,-2.2077,-2.2132,-2.2115,-2.216,-2.2178,-2.2143,-2.2196,-2.2209,-2.2237,-2.225,-2.2223,-2.2297,-2.2307,-2.2379,-2.2405,-2.2418,-2.2433,-2.2402,-2.2518,-2.2529,-2.2539,-2.2576,-2.259,-2.2417,-2.2416,-2.2416,-2.2416,0,-2.2195,-2.2235,-2.2274,-2.2302,-2.2324,-2.2373,-2.2364,-2.2389,-2.2375,-2.2374,-2.2433,-2.2444,-2.2477,-2.2493,-2.248,-2.2564,-2.2549,-2.2521,-2.2473,-2.2559,-2.2593,-2.2607,-2.2423,-2.2421,-2.242,-2.2419,0,0,-2.2331,-2.2349,-2.2364,-2.2376,-2.2394,-2.2424,-2.2473,-2.2505,-2.2527,-2.2547,-2.2588,-2.2639,-2.2613,-2.263,-2.2618,-2.2655,-2.2739,-2.2622,-2.2622,-2.2643,-2.2834,-2.2855,-2.2872,-2.2724,-2.2726,-2.2728,-2.2832,0,-2.2429,-2.2511,-2.2498,-2.2578,-2.2614,-2.2583,-2.2625,-2.2641,-2.2642,-2.2674,-2.2675,-2.2711,-2.2674,-2.2685,-2.2719,-2.2722,-2.2777,-2.2714,-2.2762,-2.2764,-2.2758,-2.2889,-2.2912,-2.3009,-2.2846,-2.2848,-2.2849,0,-2.2555,-2.258,-2.2663,-2.2677,-2.2692,-2.2729,-2.2759,-2.2789,-2.2808,-2.2806,-2.2826,-2.2809,-2.2858,-2.281,-2.2877,-2.2835,-2.2854,-2.2858,-2.2862,-2.2866,-2.2812,-2.2897,-2.304,-2.3054,-2.287,-2.2868,-2.2867,0,-2.2646,-2.2701,-2.2758,-2.2769,-2.2786,-2.2814,-2.2822,-2.2838,-2.2859,-2.2885,-2.2898,-2.293,-2.2947,-2.2973,-2.2965,-2.293,-2.3035,-2.2986,-2.3035,-2.3036,-2.3058,-2.3057,-2.3206,-2.3071,-2.3071,-2.307,-2.307,0,-2.2757,-2.2809,-2.2799,-2.2834,-2.2892,-2.2878,-2.2936,-2.2941,-2.2955,-2.2992,-2.2967,-2.3002,-2.2989,-2.3023,-2.3017,-2.3075,-2.3083,-2.3084,-2.3081,-2.3086,-2.3086,-2.3098,-2.3091,-2.3074,-2.3073,-2.3073,-2.3072,0,-2.2868,-2.2863,-2.2923,-2.2935,-2.2939,-2.2981,-2.2992,-2.3025,-2.3025,-2.3071,-2.3081,-2.3081,-2.312,-2.3115,-2.3159,-2.3155,-2.3227,-2.3216,-2.322,-2.3218,-2.3268,-2.3264,-2.343,-2.3452,-2.3303,-2.3304,-2.3305,0,-2.2939,-2.2979,-2.2995,-2.3017,-2.3028,-2.3064,-2.3085,-2.3073,-2.3096,-2.3121,-2.3152,-2.319,-2.3218,-2.3283,-2.3287,-2.3321,-2.3312,-2.3368,-2.3316,-2.332,-2.3313,-2.3311,-2.3315,-2.3378,-2.338,-2.3381,-2.3382,0,-2.3066,-2.3062,-2.3093,-2.3125,-2.315,-2.3174,-2.3196,-2.3216,-2.3206,-2.3234,-2.3273,-2.3296,-2.3342,-2.3379,-2.3411,-2.3421,-2.3401,-2.3398,-2.3412,-2.3416,-2.3417,-2.3418,-2.3248,-2.3394,-2.3393,-2.3392,-2.3392,-2.3391,-2.316,-2.3194,-2.3211,-2.3247,-2.3262,-2.3283,-2.3315,-2.3319,-2.3352,-2.3388,-2.3379,-2.3424,-2.3443,-2.3485,-2.3498,-2.3534,-2.3514,-2.3533,-2.3538,-2.3543,-2.3549,-2.3412,-2.354,-2.354,-2.3539,-2.3539,-2.3539,0,-2.3286,-2.3296,-2.3329,-2.336,-2.3389,-2.3367,-2.339,-2.3416,-2.3456,-2.3475,-2.3505,-2.3551,-2.3588,-2.3596,-2.3631,-2.3659,-2.365,-2.3669,-2.3666,-2.3669,-2.3565,-2.355,-2.3675,-2.3675,-2.3675,-2.3675,-2.3675,-2.3675,-2.3355,-2.3412,-2.341,-2.3475,-2.3484,-2.3528,-2.3544,-2.3563,-2.3579,-2.3632,-2.3662,-2.3667,-2.3682,-2.3719,-2.3752,-2.3753,-2.3768,-2.379,-2.3788,-2.369,-2.3676,-2.3663,-2.3649,-2.3793,-2.3793,-2.3889,-2.389,-2.389]},{"header":{"parameterUnit":"m.s-1","parameterCategory":1,"la1":30.2991,"la2":30.254,"lo1":-89.0895,"lo2":-89.0444,"dy":0.0017,"dx":0.0017,"nx":28,"ny":28,"refTime":"2025-02-06T09:00:00:Z","depth":0,"parameterNumber":3,"parameterNumberName":"V-component_of_WINDS"},"data":[0,0,0,0,0,0,0,0,0,0,0,0,0,0,0,0,0,0,0,0,0,0,0,0,0,0,0,0,0,0,0,0,0,0,0,0,0,0,0,0,0,0,0,0,0,0,0,0,0,0,0,0,0,0,0,0,0,0,1.0973,1.0973,0,1.1032,1.1032,1.1033,1.1057,1.1057,1.1057,1.1057,1.1116,1.1118,1.112,0,0,0,0,0,0,0,0,0,0,0,0,0,1.0882,1.0883,1.0972,1.0973,1.0974,1.1031,1.1032,1.1033,1.1057,1.1057,1.1057,1.1057,1.1116,1.1118,1.112,0,0,0,0,0,0,0,0,0,0,0,0,0,1.0929,1.0884,1.0972,1.0993,1.0995,1.1031,1.1032,1.1033,1.1057,1.1057,1.1057,1.1057,1.1115,1.1117,1.112,1.114,0,0,1.1128,1.1129,0,0,0,0,0,0,0,0,1.0926,1.0932,1.0989,1.0992,1.0994,1.1037,1.1022,1.1069,1.1057,1.1034,1.1057,1.1056,1.109,1.1094,1.1106,1.1142,1.1145,1.1128,1.113,1.1131,1.1131,0,0,0,0,0,0,0,1.0923,1.093,1.0996,1.099,1.0993,1.1,1.1006,1.1031,1.1062,1.1036,1.1038,1.1044,1.1091,1.1103,1.1108,1.1146,1.1128,1.113,1.1132,1.1133,1.1204,1.1205,0,0,0,0,0,0,1.0916,1.0927,1.0994,1.0998,1.0959,1.1001,1.1009,1.1023,1.1062,1.1068,1.1044,1.1045,1.1099,1.1104,1.111,1.1137,1.1131,1.1133,1.1134,1.1204,1.1204,1.1205,0,0,0,0,0,0,1.0914,1.0922,1.0992,1.0963,1.0972,1.1003,1.1019,1.1025,1.1037,1.1068,1.1074,1.1051,1.1099,1.1106,1.1133,1.1139,1.1134,1.1136,1.1203,1.1204,1.1205,1.1191,0,0,0,0,0,0,1.0911,1.0921,1.0928,1.0963,1.0974,1.1013,1.102,1.1026,1.1041,1.1043,1.1076,1.1082,1.11,1.1129,1.1135,1.1143,1.1138,1.1203,1.1204,1.1204,1.1191,1.1191,1.1191,0,0,0,0,0,1.0908,1.0921,1.0929,1.0937,1.0983,1.1014,1.102,1.104,1.1042,1.105,1.1071,1.1081,1.1138,1.1131,1.1139,1.1147,1.1203,1.1204,1.1204,1.1191,1.1191,1.1191,0,0,0,0,0,0,1.0886,1.0926,1.0935,1.0959,1.0983,1.1018,1.1028,1.1039,1.1063,1.1063,1.1088,1.1095,1.112,1.1136,1.1129,1.117,1.1171,1.1173,1.1158,1.1158,1.1158,1.1154,1.1141,0,0,0,0,0,1.0884,1.0905,1.0939,1.0958,1.0969,1.0997,1.101,1.1025,1.105,1.106,1.1082,1.1107,1.113,1.1145,1.1168,1.1193,1.1202,1.1203,1.1203,1.1203,1.1205,1.1221,1.1223,1.1207,1.1207,1.1207,0,0,1.088,1.0905,1.0916,1.0954,1.0974,1.0996,1.1005,1.1027,1.1044,1.1063,1.109,1.1108,1.1136,1.1163,1.1176,1.1177,1.1211,1.1204,1.1204,1.1206,1.1222,1.1224,1.1225,1.1208,1.1208,1.1208,0,0,1.0884,1.0904,1.0923,1.0944,1.0974,1.0993,1.0997,1.1031,1.1044,1.1071,1.1087,1.1108,1.1147,1.1168,1.1183,1.1198,1.1209,1.1205,1.1205,1.1221,1.1222,1.1223,1.123,1.1232,1.1207,1.1207,1.1207,0,1.0875,1.0909,1.0931,1.0953,1.097,1.099,1.101,1.1029,1.1065,1.1077,1.1078,1.113,1.115,1.1183,1.1187,1.1198,1.1205,1.1201,1.122,1.1222,1.1223,1.123,1.1232,1.1206,1.1206,1.1206,1.1206,0,1.0897,1.092,1.0932,1.0968,1.0986,1.1007,1.1033,1.1049,1.1062,1.1081,1.111,1.1136,1.1166,1.1175,1.1187,1.121,1.121,1.1215,1.1217,1.1224,1.123,1.1233,1.1205,1.1206,1.1206,1.1206,0,0,1.0888,1.0938,1.0942,1.0959,1.0996,1.1014,1.1037,1.1067,1.1081,1.1105,1.1126,1.116,1.1166,1.1184,1.1199,1.1213,1.1225,1.1217,1.1218,1.1219,1.1254,1.125,1.1252,1.1233,1.1233,1.1234,1.1252,0,1.0897,1.0939,1.0961,1.0993,1.1016,1.1036,1.1056,1.1081,1.11,1.1122,1.1143,1.1167,1.1173,1.1184,1.1198,1.1221,1.1233,1.122,1.1252,1.1253,1.1245,1.1256,1.1251,1.1267,1.1254,1.1255,1.1255,0,1.0914,1.094,1.0975,1.1011,1.1021,1.1039,1.1069,1.109,1.112,1.1132,1.1154,1.1169,1.1195,1.1195,1.1231,1.1222,1.1237,1.125,1.1251,1.1255,1.1255,1.1261,1.1272,1.1275,1.1259,1.1259,1.1259,0,1.0905,1.0949,1.0976,1.099,1.1032,1.1045,1.1063,1.1092,1.111,1.1137,1.1149,1.1178,1.1194,1.1216,1.124,1.1238,1.1274,1.1276,1.1286,1.1286,1.1293,1.1292,1.1308,1.1302,1.1302,1.1302,1.1301,0,1.0914,1.0935,1.0973,1.0989,1.1014,1.104,1.1064,1.1083,1.111,1.1131,1.1151,1.117,1.12,1.1224,1.1242,1.1271,1.1277,1.1289,1.1294,1.1288,1.1286,1.1298,1.1298,1.1302,1.1302,1.1302,1.1302,0,1.0908,1.0934,1.0965,1.1004,1.1014,1.103,1.1064,1.1081,1.1102,1.1129,1.1137,1.1169,1.1198,1.1224,1.1262,1.1275,1.1304,1.1309,1.1294,1.1297,1.1306,1.1306,1.133,1.1335,1.1325,1.1325,1.1325,0,1.0912,1.0929,1.097,1.0986,1.1004,1.1029,1.1048,1.1075,1.1094,1.113,1.1143,1.1174,1.12,1.1246,1.1273,1.1303,1.131,1.1317,1.1315,1.1309,1.1312,1.1311,1.1313,1.1317,1.1317,1.1317,1.1317,0,1.0917,1.093,1.0956,1.0987,1.1009,1.1035,1.1061,1.1074,1.1106,1.1126,1.1157,1.1177,1.1218,1.1248,1.1282,1.1301,1.1315,1.1317,1.1322,1.1316,1.1307,1.1313,1.1295,1.1316,1.1316,1.1316,1.1316,1.1316,1.0917,1.0934,1.0966,1.0995,1.1018,1.1043,1.1062,1.1086,1.1112,1.1147,1.1162,1.1194,1.1225,1.1271,1.1291,1.1316,1.1319,1.1324,1.1326,1.1327,1.1327,1.1302,1.1322,1.1322,1.1323,1.1323,1.1323,0,1.0924,1.0946,1.0973,1.101,1.1033,1.1045,1.1076,1.1094,1.1122,1.115,1.1177,1.1213,1.1244,1.1274,1.1307,1.1321,1.1329,1.1329,1.1329,1.1333,1.1322,1.1316,1.1323,1.1323,1.1323,1.1323,1.1323,1.1323,1.093,1.096,1.0977,1.1019,1.1041,1.1073,1.109,1.1113,1.1136,1.1176,1.1202,1.1222,1.1252,1.1287,1.1316,1.1324,1.1336,1.1335,1.1345,1.1334,1.1334,1.1333,1.1327,1.1337,1.1337,1.1354,1.1354,1.1354]}]]